STARLINK-34535, 64698

Orbit data source: Space-Track

STARLINK-34535, 64698 is a payload satellite owned by SpaceX/Seattle (US) in LEO that was launched on Sat, 28 Jun 2025 UTC via an FALCON 9 launch vehicle from the Air Force Western Test Range (AFWTR). Payload-class satellites include a variety of spacecraft equipped with specific instruments for various scientific and technological missions. These include communications satellites like Starlink; space stations such as the ISS; scientific satellites like the Hubble; Earth observation satellites from companies like Planet Labs, Umbra, and HawkEye 360; GPS; miniature CubeSats for education and research; and military/defense satellites.

Loading next visibility...
Identifier
64698, 2025-142C
Orbit
LEO
Country
Flag of USUS
Related business
Manufacturer
SpaceX/Seattle
Mission
Operational Commercial Communications
Bus & Motor
STARLINK V2MO, Unknown motor
Mass
575 kg wet, ~530 kg dry
Launch date (UTC)
2025-06-28 (2 months ago)
Launch vehicle
FALCON 9
Launch site
Air Force Western Test Range (AFWTR)
Object type
Payload
Rocket body
Debris
Shape & HBR
Box + 1 Pan, 14.5 m
Radar Cross Section
41.120 m², Large (>1 m²)

Expand to show TLE details & history
Last TLE update: 1 day ago

TLE from 1 day ago
0 STARLINK-34535
1 64698U 25142C   25241.97967188  .00048717  00000-0  11080-2 0  9995
2 64698  70.0009  79.8497 0003332 278.5570  81.5234 15.42732990 10703
Epoch: 2025-08-29T23:30Z
TLE epoch observation values (Epoch: 2025-08-29T23:30:43.65Z)
Latitude
-0.00004°
Longitude
108.74726°
Altitude
440.185 km
Speed
7.648 km/s
True Right ascension
05h 19m 23s
True Declination
0° 00' 00"
Sunlit
Object was in daylight at epoch
Visualization orbit readout
Latitude
Unknown
Longitude
Unknown
Altitude
Unknown
Speed
Unknown
Apparent Right ascension
Unknown
Apparent Declination
Unknown
Sunlit
N/A
Visualization observer readout
Local Sidereal Time
16:43:33
Azimuth
Unknown
Elevation
Unknown
Doppler factor
Unknown
Orbital elements
Apogee altitude
438.225 km
Perigee altitude
433.685 km
Semi-major axis
6,814.092 km
Eccentricity
0.00033
Inclination
70.0009°
RAAN
79.8497°
Arg. of periapsis
278.557°
True anomaly
81.56117°
Mean anomaly
81.5234°
Eccentric anomaly
81.54228°
Mean motion
3.85861 °/min
Orbital period
93.3 mins
BSTAR
0.001108
Loading maneuver chart data...
Computing Atmospheric mass density...
Loading historical data...
Loading historical data...
Loading historical data...
Loading historical data...
Loading historical data...
Loading historical data...
Loading historical data...

Documentation

Showing up to 5 results
|